TimeMST,TemperatureF,Dew PointF,Humidity,Sea Level PressureIn,VisibilityMPH,Wind Direction,Wind SpeedMPH,Gust SpeedMPH,PrecipitationIn,Events,Conditions,WindDirDegrees,DateUTC
12:53 AM,44.1,32.0,63,29.87,10.0,NW,13.8,-,N/A,,Clear,310,2012-11-22 07:53:00
1:53 AM,42.1,33.1,70,29.91,10.0,NW,12.7,-,N/A,,Overcast,320,2012-11-22 08:53:00
2:53 AM,37.9,32.0,79,29.95,10.0,NW,5.8,-,N/A,,Clear,310,2012-11-22 09:53:00
3:53 AM,35.1,28.9,78,29.98,10.0,WNW,6.9,-,N/A,,Clear,290,2012-11-22 10:53:00
4:53 AM,34.0,27.0,75,30.01,10.0,WNW,9.2,-,N/A,,Clear,290,2012-11-22 11:53:00
5:53 AM,32.0,26.1,79,30.04,10.0,West,8.1,-,N/A,,Clear,260,2012-11-22 12:53:00
6:53 AM,30.0,25.0,82,30.08,10.0,West,5.8,-,N/A,,Clear,270,2012-11-22 13:53:00
7:49 AM,28.4,26.6,93,30.08,9.0,NW,6.9,-,N/A,,Mostly Cloudy,320,2012-11-22 14:49:00
7:53 AM,28.9,27.0,92,30.14,7.0,NW,6.9,-,N/A,,Mostly Cloudy,320,2012-11-22 14:53:00
8:02 AM,28.4,26.6,93,30.10,1.8,North,8.1,-,N/A,,Mostly Cloudy,360,2012-11-22 15:02:00
8:26 AM,30.2,28.4,93,30.11,3.0,NW,4.6,-,N/A,,Overcast,310,2012-11-22 15:26:00
8:37 AM,30.2,28.4,93,30.11,5.0,NW,5.8,-,N/A,,Overcast,320,2012-11-22 15:37:00
8:53 AM,30.9,28.9,92,30.19,10.0,NW,9.2,-,N/A,,Overcast,310,2012-11-22 15:53:00
9:31 AM,30.2,24.8,80,30.16,10.0,NW,20.7,-,N/A,,Overcast,320,2012-11-22 16:31:00
9:39 AM,30.2,24.8,80,30.16,10.0,NW,18.4,24.2,N/A,,Overcast,320,2012-11-22 16:39:00
9:53 AM,30.0,24.1,79,30.23,10.0,NW,16.1,24.2,N/A,,Overcast,310,2012-11-22 16:53:00
10:07 AM,30.2,24.8,80,30.19,10.0,NW,12.7,20.7,N/A,,Overcast,310,2012-11-22 17:07:00
10:53 AM,30.0,21.0,69,30.28,10.0,NW,19.6,29.9,N/A,,Overcast,320,2012-11-22 17:53:00
11:53 AM,26.1,18.0,71,30.35,9.0,NNW,21.9,26.5,0.00,Snow,Light Snow,330,2012-11-22 18:53:00
12:53 PM,24.1,15.1,69,30.39,10.0,NW,19.6,25.3,0.00,,Overcast,320,2012-11-22 19:53:00
1:00 PM,24.8,15.8,69,30.31,10.0,NW,19.6,25.3,N/A,,Overcast,310,2012-11-22 20:00:00
1:53 PM,23.0,10.9,60,30.43,10.0,NNW,17.3,-,N/A,,Scattered Clouds,330,2012-11-22 20:53:00
2:53 PM,21.9,10.0,60,30.48,10.0,NW,20.7,32.2,N/A,,Overcast,320,2012-11-22 21:53:00
3:53 PM,21.9,10.0,60,30.52,10.0,NW,15.0,23.0,N/A,,Overcast,320,2012-11-22 22:53:00
4:53 PM,21.0,10.0,63,30.56,10.0,NNW,15.0,-,N/A,,Overcast,330,2012-11-22 23:53:00
5:53 PM,19.0,10.9,71,30.58,10.0,NNW,9.2,-,N/A,,Mostly Cloudy,330,2012-11-23 00:53:00
6:53 PM,19.0,10.9,71,30.61,10.0,NW,9.2,-,N/A,,Overcast,320,2012-11-23 01:53:00
7:53 PM,17.1,10.9,77,30.64,10.0,NW,4.6,-,N/A,,Clear,320,2012-11-23 02:53:00
8:53 PM,16.0,10.9,81,30.63,10.0,WNW,3.5,-,N/A,,Clear,290,2012-11-23 03:53:00
9:53 PM,15.1,10.9,84,30.64,10.0,West,5.8,-,N/A,,Clear,260,2012-11-23 04:53:00
10:53 PM,16.0,10.0,77,30.64,10.0,WNW,3.5,-,N/A,,Clear,290,2012-11-23 05:53:00
11:53 PM,16.0,10.0,77,30.65,10.0,Calm,Calm,-,N/A,,Clear,0,2012-11-23 06:53:00